Bangor, ME

5:51 PM EST on February 23, 2018 (GMT -0500)
Bangor International

Weather History for KBGR - April, 2013

Change the Weather History Date:

Thursday, April 4, 2013

  Actual Average Record
Temperature  
Mean Temperature 38 °F 38 °F  
Max Temperature 49 °F 47 °F 77 °F (2010)
Min Temperature 27 °F 28 °F 7 °F (1954)
Degree Days  
Heating Degree Days 27 27  
Month to date heating degree days 124 112  
Since 1 July heating degree days 6504 6835  
Cooling Degree Days 0 0  
Month to date cooling degree days 0 0  
Year to date cooling degree days 0 0  
Moisture  
Dew Point 11 °F    
Average Humidity 44    
Maximum Humidity 70    
Minimum Humidity 18    
Precipitation  
Precipitation 0.00 in 0.13 in 0.95 in (1990)
Month to date precipitation 0.39 0.49  
Year to date precipitation 5.35 9.28  
Snow  
Snow 0.00 in 0.20 in 6.00 in (2007)
Month to date snowfall T 1.0  
Since 1 July snowfall 73.2 63.4  
Snow Depth 0.00 in    
Sea Level Pressure  
Sea Level Pressure 30.03 in    
Wind  
Wind Speed 10 mph (WSW)    
Max Wind Speed 17 mph    
Max Gust Speed 24 mph    
Visibility 10 miles    
Events      
T = Trace of Precipitation, MM = Missing Value Source: NWS Daily Summary

Daily Weather History Graph

Daily Weather History Graph

Search for Another Location

Airport or City:

Trip Planner

Search our weather history database for the weather conditions in past years. The results will help you decide how hot, cold, wet, or windy it might be!

Date:

Astronomy

Apr. 04, 2013 Rise Set
Actual Time 6:10 AM EDT 7:06 PM EDT
Civil Twilight 5:40 AM EDT 7:36 PM EDT
Nautical Twilight 5:05 AM EDT 8:12 PM EDT
Astronomical Twilight 4:27 AM EDT 8:49 PM EDT
Moon 2:48 AM EDT (4/4) 1:07 PM EDT (4/4)
Length of Visible Light 13h 56m
Length of Day
12h 56m
Waning Crescent, 34% of the Moon is Illuminated
Apr 4
Waning Crescent
Apr 10
New
Apr 18
First Quarter
Apr 25
Full
May 2
Last Quarter

Hourly Weather History & Observations

Time (EDT) Temp. Windchill Dew Point Humidity Pressure Visibility Wind Dir Wind Speed Gust Speed Precip Events Conditions
12:53 AM 30.0 °F 21.1 °F 14.0 °F 51% 29.96 in 10.0 mi WNW 10.4 mph 23.0 mph N/A   Clear
1:53 AM 30.0 °F 21.7 °F 12.9 °F 49% 29.99 in 10.0 mi WNW 9.2 mph 23.0 mph N/A   Clear
2:53 AM 28.9 °F 19.8 °F 12.0 °F 49% 30.01 in 10.0 mi WNW 10.4 mph - N/A   Clear
3:53 AM 28.9 °F 19.8 °F 10.9 °F 47% 30.02 in 10.0 mi WNW 10.4 mph 17.3 mph N/A   Clear
4:53 AM 28.9 °F 21.1 °F 10.0 °F 45% 30.04 in 10.0 mi WNW 8.1 mph - N/A   Clear
5:53 AM 28.0 °F 21.7 °F 9.0 °F 45% 30.06 in 10.0 mi WNW 5.8 mph - N/A   Partly Cloudy
6:53 AM 28.0 °F 19.3 °F 8.1 °F 43% 30.09 in 10.0 mi WNW 9.2 mph 18.4 mph N/A   Partly Cloudy
7:53 AM 30.0 °F 20.5 °F 7.0 °F 38% 30.12 in 10.0 mi WNW 11.5 mph 19.6 mph N/A   Clear
8:53 AM 33.1 °F 24.9 °F 6.1 °F 32% 30.13 in 10.0 mi WNW 10.4 mph 19.6 mph N/A   Clear
9:53 AM 34.0 °F 25.0 °F 6.1 °F 31% 30.14 in 10.0 mi WNW 12.7 mph 24.2 mph N/A   Clear
10:53 AM 37.0 °F 29.3 °F 6.1 °F 28% 30.14 in 10.0 mi WNW 11.5 mph 19.6 mph N/A   Clear
11:53 AM 39.9 °F 32.5 °F 5.0 °F 23% 30.12 in 10.0 mi West 12.7 mph 24.2 mph N/A   Partly Cloudy
12:53 PM 43.0 °F 37.2 °F 5.0 °F 21% 30.08 in 10.0 mi West 10.4 mph 20.7 mph N/A   Partly Cloudy
1:53 PM 46.0 °F 41.9 °F 6.1 °F 20% 30.05 in 10.0 mi WSW 8.1 mph 19.6 mph N/A   Clear
2:53 PM 46.9 °F - 8.1 °F 21% 30.03 in 10.0 mi SW 15.0 mph 20.7 mph N/A   Partly Cloudy
3:53 PM 46.0 °F 41.4 °F 7.0 °F 20% 30.01 in 10.0 mi WSW 9.2 mph - N/A   Mostly Cloudy
4:53 PM 48.0 °F - 7.0 °F 19% 29.99 in 10.0 mi WSW 11.5 mph 19.6 mph N/A   Scattered Clouds
5:53 PM 48.0 °F - 8.1 °F 20% 29.97 in 10.0 mi SW 11.5 mph - N/A   Partly Cloudy
6:53 PM 44.1 °F 38.1 °F 12.0 °F 27% 29.96 in 10.0 mi South 11.5 mph - N/A   Clear
7:53 PM 41.0 °F 33.9 °F 19.0 °F 41% 29.97 in 10.0 mi South 12.7 mph - N/A   Clear
8:53 PM 39.0 °F 32.8 °F 19.9 °F 46% 29.99 in 10.0 mi South 9.2 mph - N/A   Clear
9:53 PM 37.0 °F 30.4 °F 23.0 °F 57% 29.98 in 10.0 mi South 9.2 mph - N/A   Clear
10:53 PM 35.1 °F 31.0 °F 26.1 °F 70% 29.96 in 10.0 mi South 4.6 mph - N/A   Clear
11:53 PM 35.1 °F 31.0 °F 27.0 °F 72% 29.94 in 10.0 mi South 4.6 mph - N/A   Clear